Location: Green Meadows Mobile Home Park
(43.1166°N, 93.3866°W)
Time: 13:09:45
(UTC+00:00)

Daily predictions for brighter satellites

Satellite Brightness Start Highest point End
(mag) Time Altitude Azimuth Time Altitude Azimuth Time Altitude Azimuth
BREEZE M DEB (TANK) 3.6 12:03:10 23° NW 12:04:20 27° N 12:06:27 10° ENE
Cosmos 2369 Rocket 2.5 12:02:24 10° SW 12:07:39 41° WNW 12:12:57 10° NNE
Cosmos 1408 Rocket 3.5 12:04:49 10° S 12:09:07 86° E 12:13:27 10° N
USA 238 DEB 4.4 12:10:12 18° W 12:14:03 30° NW 12:20:05 10° NNE
USA 238 4.4 12:10:15 18° W 12:14:09 31° NW 12:20:11 10° NNE
Cosmos 2279 Rocket 4.1 12:08:25 10° NNW 12:14:24 53° W 12:20:22 10° SSW
BREEZE-M DEB 4.1 12:12:11 10° SW 12:15:10 55° SE 12:23:42 10° ENE
USA 215 3.3 12:10:01 10° SE 12:16:30 71° SW 12:22:26 13° NW
Cosmos 1743 Rocket 4.4 12:12:25 10° S 12:16:42 54° E 12:20:59 10° NNE
H-2A R/B 4.3 12:13:30 10° NE 12:17:34 26° E 12:21:39 10° SSE
Nadezhda 4 Rocket 4.0 12:17:01 10° S 12:23:10 87° W 12:29:26 10° N
Cosmos 783 Rocket 4.4 12:20:12 10° NNW 12:25:26 83° WSW 12:30:37 10° SSE
Cosmos 1503 Rocket 4.2 12:20:35 10° SW 12:25:41 50° WNW 12:30:53 10° N
Cosmos 1515 Rocket 3.5 12:22:27 10° NNW 12:26:49 69° W 12:31:06 10° S
DMSP B5D2-2 4.1 12:22:29 10° S 12:27:40 67° WSW 12:32:52 10° NNW
Cosmos 1656 Rocket 4.1 12:24:40 10° SW 12:29:39 37° WNW 12:34:41 10° N
SL-8 R/B 3.7 12:26:14 15° WNW 12:30:13 88° NNE 12:35:00 10° ESE
Meteor 2-15 Rocket 4.4 12:26:05 10° NNW 12:32:10 75° W 12:38:11 10° S
SL-27 R/B 2.4 12:28:57 10° NNW 12:32:33 89° ENE 12:36:05 10° SSE
SJ 16-02 1.4 12:28:54 10° SSW 12:33:16 83° ESE 12:37:40 10° NNE
CZ-2C R/B 3.7 12:29:52 10° SSW 12:34:20 25° W 12:38:47 10° NW
Cosmos 1340 Rocket 2.8 12:31:55 10° S 12:35:51 88° E 12:39:51 10° N
Cosmos 1943 Rocket 3.8 12:34:39 12° WNW 12:36:38 14° NW 12:39:31 10° NNW
Cosmos 1777 Rocket 4.0 12:31:44 10° SSW 12:36:56 85° WNW 12:42:13 10° NNE
Cosmos 1092 Rocket 4.4 12:31:34 10° S 12:37:45 72° E 12:44:02 10° NNE
Cosmos 2227 Rocket 4.4 12:35:25 10° N 12:39:21 19° NE 12:43:17 10° E
Cosmos 1939 Rocket 2.8 12:40:52 10° N 12:44:46 63° WNW 12:48:36 10° SSW
NOAA 6 4.1 12:40:18 10° NNE 12:45:27 86° ESE 12:50:35 10° SSW
Cosmos 1500 Rocket 3.6 12:41:02 10° SSW 12:45:28 68° W 12:49:57 10° N
Cosmos 773 Rocket 4.1 12:41:14 10° NNW 12:46:23 60° WSW 12:51:28 10° S
EP 2 4.5 12:44:09 10° SW 12:47:17 76° NW 12:50:16 10° NNE
CORIOLIS 4.4 12:41:57 10° NNE 12:47:27 79° ESE 12:52:53 10° S
Meteor 1-27 Rocket 3.9 12:45:39 10° NNW 12:51:11 58° W 12:56:47 10° S
Envisat 4.5 12:53:02 10° NNW 12:55:52 15° WNW 12:58:41 10° W
Cosmos 1500 3.9 12:52:39 10° S 12:56:24 58° E 13:00:09 10° NNE
Cosmos 1805 Rocket 3.6 12:52:45 10° S 12:57:09 88° W 13:01:33 10° N
Sich 1 3.3 12:54:00 10° S 12:58:17 75° E 13:02:33 10° NNE
NOAA 12 4.3 12:53:37 10° N 12:58:40 48° WNW 13:03:40 10° SW
H-2A R/B 2.5 12:55:21 10° S 12:59:21 42° W 13:03:30 10° NNW
NOSS 3-1 (A) 4.2 22:57:31 10° NNW 23:04:57 61° NE 23:13:36 10° SE
NOSS 3-1 (C) 4.2 22:57:58 10° NW 23:05:36 88° NE 23:14:29 10° SE
Cosmos 1464 Rocket 4.2 23:00:51 10° S 23:07:15 87° WNW 23:13:40 10° N
Cosmos 44 3.3 23:04:25 10° NW 23:09:12 82° WSW 23:13:38 10° SSE
CZ-2C R/B 4.0 23:07:09 10° NE 23:10:29 17° E 23:13:45 10° SE
Cosmos 468 Rocket 4.1 23:07:17 10° S 23:12:20 61° ESE 23:17:27 10° NNE
CZ-2C R/B 2.9 23:09:10 10° SSE 23:14:07 86° ENE 23:18:56 10° NNW
Cosmos 1898 Rocket 3.7 23:11:20 10° N 23:16:26 49° ENE 23:21:29 10° SE
Cosmos 2084 3.6 23:13:12 10° NNW 23:17:28 58° NE 23:21:53 10° SE
Nadezhda 4 Rocket 4.0 23:11:11 10° N 23:17:33 80° E 23:23:53 10° S
SL-08 R/B 3.9 23:17:45 10° N 23:22:23 58° WNW 23:26:55 10° SSW
AQUARIUS 4.4 23:18:30 10° SE 23:22:49 49° ENE 23:27:09 10° N
CZ-4C R/B 3.6 23:19:33 10° NNW 23:25:50 33° NE 23:33:03 10° E
Cosmos 1939 Rocket 2.8 23:27:07 10° SSE 23:31:14 78° ENE 23:35:20 10° N
Cosmos 1092 Rocket 4.1 23:26:20 10° N 23:32:39 62° E 23:38:53 10° SSE
Cosmos 1812 3.9 23:31:05 10° SE 23:34:04 22° E 23:36:51 11° NE
H-2A R/B 2.4 23:31:26 10° SE 23:36:17 42° ENE 23:41:02 10° N
USA 276 2.2 23:34:22 10° WNW 23:37:29 74° SSW 23:40:35 10° SE
COSMO-SKYMED 1 3.6 23:34:21 10° NE 23:38:00 25° E 23:41:36 10° SSE
Cosmos 1656 4.3 23:32:51 10° NNW 23:38:18 60° WSW 23:43:49 10° S
FengYun 1-2 T 4.5 23:36:15 10° S 23:41:50 77° WSW 23:47:25 10° NNW
Cosmos 1763 Rocket 3.9 23:41:43 10° SSW 23:46:44 63° WNW 23:51:49 10° NNE
Cosmos 2322 Rocket 4.0 23:45:10 10° NNE 23:47:23 12° NE 23:47:28 12° NE
Cosmos 1633 Rocket 4.0 23:44:24 10° NNE 23:48:05 26° ENE 23:51:46 10° SE
Cosmos 1697 Rocket 2.6 23:45:19 10° NNW 23:50:58 86° ENE 23:56:35 10° SSE
Cosmos 1602 3.6 23:47:49 10° N 23:51:42 83° E 23:55:33 10° S
Cosmos 841 Rocket 3.5 23:47:20 10° S 23:52:26 64° ESE 23:57:32 10° NNE
Cosmos 1627 Rocket 4.4 23:47:22 10° N 23:53:34 76° E 23:59:40 10° SSE
